[[{"header":{"parameterUnit":"m.s-1","parameterCategory":1,"la1":30.2992,"la2":30.254,"lo1":-89.0895,"lo2":-89.0443,"dy":0.0025,"dx":0.0025,"nx":19,"ny":19,"refTime":"2026-03-29T09:00:00:Z","depth":0,"parameterNumber":2,"parameterNumberName":"U-component_of_WINDS"},"data":[0,0,0,-1.0288,-1.0289,-1.03,-1.0299,-1.0332,-1.0332,0,0,0,0,0,0,0,0,0,0,0,-1.0296,-1.0297,-1.0288,-1.0289,-1.03,-1.0299,-1.0332,-1.0332,0,0,0,0,0,0,0,0,0,0,0,-1.0296,-1.0297,-1.0297,-1.0289,-1.03,-1.0299,-1.0332,-1.0317,0,0,0,0,0,0,0,0,0,0,-1.0304,-1.0322,-1.0297,-1.0297,-1.0289,-1.03,-1.0299,-1.0316,-1.0318,-1.0335,0,-1.0352,0,-1.0343,-1.0336,-1.0336,0,0,0,-1.0281,-1.032,-1.0313,-1.0298,-1.0289,-1.03,-1.0293,-1.0317,-1.0319,-1.0338,-1.0353,-1.0353,-1.0343,-1.0336,-1.0336,-1.0458,-1.0459,0,0,-1.0281,-1.0304,-1.0311,-1.0315,-1.0313,-1.0292,-1.0293,-1.0318,-1.0336,-1.0353,-1.0354,-1.0344,-1.0336,-1.0337,-1.0457,-1.0458,0,0,0,-1.0284,-1.0305,-1.0296,-1.0314,-1.0314,-1.0293,-1.0294,-1.0335,-1.033,-1.0354,-1.0344,-1.0337,-1.0337,-1.0456,-1.0458,-1.0528,0,0,0,-1.0283,-1.0306,-1.0296,-1.0311,-1.0314,-1.0325,-1.0311,-1.0329,-1.0331,-1.0344,-1.0337,-1.0338,-1.0455,-1.0457,-1.0524,-1.0559,0,0,0,-1.0292,-1.0307,-1.0312,-1.0312,-1.0317,-1.0324,-1.032,-1.0329,-1.0325,-1.0336,-1.0338,-1.0454,-1.0457,-1.052,-1.0552,-1.0599,0,0,0,-1.0308,-1.0375,-1.0314,-1.0385,-1.0318,-1.0366,-1.032,-1.0355,-1.0372,-1.0337,-1.0455,-1.0457,-1.0519,-1.0548,-1.0595,-1.0644,-1.0666,0,0,-1.0406,-1.0388,-1.0428,-1.0373,-1.0439,-1.0363,-1.0439,-1.0433,-1.0412,-1.0444,-1.0447,-1.0525,-1.0552,-1.0598,-1.0776,-1.0794,0,0,0,-1.0467,-1.0496,-1.0508,-1.0525,-1.0521,-1.052,-1.0499,-1.0496,-1.0522,-1.0433,-1.0552,-1.0568,-1.0594,-1.0616,-1.0631,-1.0653,-1.0468,-1.0468,-1.0468,-1.0643,-1.0611,-1.0675,-1.0645,-1.0661,-1.0638,-1.0649,-1.0641,-1.0605,-1.0634,-1.0645,-1.0756,-1.0784,-1.0795,-1.0818,-1.0665,-1.0666,-1.0666,-1.0666,-1.0786,-1.0823,-1.0771,-1.0815,-1.0781,-1.0818,-1.0797,-1.077,-1.08,-1.0746,-1.0768,-1.0715,-1.0815,-1.0834,-1.0671,-1.067,-1.067,-1.0669,-1.0669,-1.09,-1.0912,-1.0906,-1.0927,-1.0946,-1.0911,-1.0942,-1.091,-1.088,-1.09,-1.0909,-1.0908,-1.0904,-1.0906,-1.0906,-1.0907,-1.0907,-1.0907,-1.0908,-1.1022,-1.1013,-1.1042,-1.1042,-1.1048,-1.1051,-1.1026,-1.1032,-1.103,-1.1004,-1.1004,-1.0966,-1.0829,-1.0797,-1.0914,-1.0913,-1.0912,-1.0911,-1.0911,-1.1185,-1.1142,-1.1188,-1.1194,-1.119,-1.1211,-1.1167,-1.1181,-1.118,-1.1196,-1.1152,-1.1056,-1.1036,-1.1023,-1.0997,-1.1158,-1.1158,-1.1158,-1.1158,-1.1284,-1.1268,-1.1307,-1.1319,-1.1326,-1.1291,-1.1344,-1.1325,-1.1298,-1.1296,-1.1267,-1.1228,-1.1217,-1.1203,-1.1187,-1.1162,-1.1361,-1.1361,-1.1362,-1.1383,-1.1366,-1.1419,-1.139,-1.1384,-1.1379,-1.1429,-1.1445,-1.1405,-1.1369,-1.1294,-1.1285,-1.1222,-1.1202,-1.1169,-1.1145,-1.1098,0,0]},{"header":{"parameterUnit":"m.s-1","parameterCategory":1,"la1":30.2992,"la2":30.254,"lo1":-89.0895,"lo2":-89.0443,"dy":0.0025,"dx":0.0025,"nx":19,"ny":19,"refTime":"2026-03-29T09:00:00:Z","depth":0,"parameterNumber":3,"parameterNumberName":"V-component_of_WINDS"},"data":[0,0,0,-4.7892,-4.7895,-4.8008,-4.8008,-4.8167,-4.8169,0,0,0,0,0,0,0,0,0,0,0,-4.787,-4.7871,-4.7892,-4.7895,-4.8008,-4.8008,-4.8167,-4.8169,0,0,0,0,0,0,0,0,0,0,0,-4.7869,-4.7871,-4.7873,-4.7895,-4.8008,-4.8009,-4.8167,-4.8075,0,0,0,0,0,0,0,0,0,0,-4.7963,-4.7954,-4.787,-4.7873,-4.7896,-4.8008,-4.8009,-4.8071,-4.8081,-4.8123,0,-4.8166,0,-4.817,-4.8181,-4.8181,0,0,0,-4.7886,-4.7946,-4.7966,-4.7873,-4.7897,-4.8008,-4.7954,-4.8076,-4.8088,-4.8137,-4.8168,-4.8173,-4.8173,-4.8182,-4.8183,-4.8461,-4.8463,0,0,-4.7879,-4.7896,-4.7958,-4.7974,-4.7961,-4.7951,-4.7958,-4.8083,-4.8117,-4.8168,-4.8177,-4.8175,-4.8183,-4.8184,-4.8459,-4.8461,0,0,0,-4.7868,-4.7892,-4.7909,-4.7968,-4.7988,-4.7954,-4.7963,-4.8111,-4.8116,-4.8178,-4.8177,-4.8184,-4.8186,-4.8457,-4.846,-4.8563,0,0,0,-4.7863,-4.7885,-4.7906,-4.7917,-4.7986,-4.8052,-4.7988,-4.8107,-4.8121,-4.8176,-4.8184,-4.8188,-4.8455,-4.8459,-4.8556,-4.8609,0,0,0,-4.7858,-4.7884,-4.7905,-4.7918,-4.7968,-4.8049,-4.8061,-4.811,-4.8121,-4.8181,-4.8188,-4.8454,-4.8458,-4.855,-4.8599,-4.8688,0,0,0,-4.7857,-4.7993,-4.7907,-4.8058,-4.7967,-4.8113,-4.806,-4.8167,-4.8231,-4.8185,-4.8456,-4.846,-4.8548,-4.8593,-4.8682,-4.8767,-4.8804,0,0,-4.8038,-4.8016,-4.8103,-4.8029,-4.8196,-4.8094,-4.8274,-4.8316,-4.8305,-4.8409,-4.8415,-4.8559,-4.8598,-4.8687,-4.9004,-4.9033,0,0,0,-4.8166,-4.823,-4.827,-4.8334,-4.8371,-4.8406,-4.8419,-4.8434,-4.8522,-4.8363,-4.8614,-4.8637,-4.8688,-4.8728,-4.8753,-4.8796,-4.8479,-4.8478,-4.8478,-4.8446,-4.8427,-4.8571,-4.8566,-4.8628,-4.864,-4.8688,-4.871,-4.867,-4.873,-4.8761,-4.8956,-4.9004,-4.9022,-4.9067,-4.8803,-4.8804,-4.8804,-4.8805,-4.871,-4.8797,-4.8743,-4.8864,-4.8842,-4.8942,-4.8958,-4.8927,-4.9015,-4.8931,-4.8975,-4.8886,-4.9056,-4.9094,-4.8812,-4.8811,-4.881,-4.8809,-4.8809,-4.8892,-4.8931,-4.8949,-4.9039,-4.9109,-4.9097,-4.9185,-4.9161,-4.9138,-4.9181,-4.9211,-4.921,-4.9205,-4.9197,-4.9198,-4.9199,-4.9199,-4.92,-4.92,-4.9075,-4.9091,-4.917,-4.9221,-4.9259,-4.9304,-4.9317,-4.9352,-4.9385,-4.936,-4.936,-4.9315,-4.9076,-4.9017,-4.9211,-4.9209,-4.9207,-4.9206,-4.9206,-4.9352,-4.9285,-4.9407,-4.9445,-4.9502,-4.9574,-4.9541,-4.9615,-4.964,-4.9684,-4.9629,-4.9456,-4.9431,-4.9411,-4.9362,-4.9633,-4.9633,-4.9633,-4.9633,-4.9506,-4.9491,-4.961,-4.9672,-4.973,-4.9713,-4.9849,-4.986,-4.9859,-4.9873,-4.983,-4.9762,-4.9743,-4.9729,-4.9702,-4.9656,-4.9996,-4.9996,-4.9997,-4.9675,-4.9665,-4.9787,-4.9789,-4.9831,-4.9868,-4.9995,-5.0066,-5.0051,-5.0011,-4.9884,-4.9868,-4.9759,-4.9724,-4.9683,-4.9641,-4.9556,0,0]}]]